Location: Arcueil
(48.7999°N, 2.3326°E)
Time: 13:07:37
(UTC+00:00)

Cosmos 1408 - Pass Details

Date: 03 February 2023
Orbit: 433 x 464 km, 82.6° (Epoch: 24 March)

Event Time Altitude Azimuth Distance (km) Brightness Sun altitude
Rises 17:34:54 0° 180° (S) 2,416 6.3 -7.6°
Reaches altitude 10° 17:36:56 10° 177° (S) 1,559 5.3 -7.9°
Maximum altitude 17:40:17 62° 96° (E) 512 2.4 -8.4°
Drops below altitude 10° 17:43:45 10° 16° (NNE) 1,608 4.9 -9.0°
Sets 17:45:52 0° 13° (NNE) 2,501 5.9 -9.3°
